Flag for Canada Weather past 2 weeks in St. John's, Newfoundland and Labrador, Canada

Now
34 °F

Light snow. Mostly cloudy.


Feels Like: 24 °F
Forecast: 31 / 39 °F
Wind: 15 mph from Southwest

Location: St. John's

Current Time: Apr 1, 2015 at 2:52:58 AM

Latest Report: Apr 1, 2015 at 2:30 AM


Visibility: 15 mi

Pressure: 29.58 "Hg

Humidity: 87%

Dew point: 30 °F

Location of St. John'sLocation

Historic Weather in St. John's — Graph

°F

St. John's temperature yesterday

Maximum temperature yesterday: 34 °F (at 2:30 PM)
Minimum temperature yesterday: 23 °F (at 2:21 AM)
Average temperature yesterday: 28 °F

Past Weeks' High & Low Weather Summary

 TemperatureHumidityPressure
High43 °F (Mar 22, 3:30 PM)100% (Mar 17, 1:30 AM)30.34 "Hg (Mar 17, 1:30 AM)
Low16 °F (Mar 21, 5:30 AM)51% (Mar 26, 1:30 PM)28.71 "Hg (Mar 19, 9:30 AM)
Average29 °F87%29.68 "Hg
* Reported Mar 17 1:30 AM — Apr 1 1:30 AM, St. John's, Weather by CustomWeather, © 2015

Note: Actual official high and low records may vary slightly from our data, if they occured in-between our weather recording intervals... More about our weather records

Advertising

St. John's weather history for previous 24 hours

 ConditionsComfort  
Time TempWeatherWind HumidityBarometerVisibility
1:30 AM
Wed, Apr 1
32 °FLow clouds.13 mph93%29.59 "Hg15 mi
12:30 AM30 °FPassing clouds.18 mph100%29.60 "Hg15 mi
11:30 PM
Tue, Mar 31
30 °FLight snow. Low clouds.16 mph100%29.61 "Hg12 mi
10:30 PM30 °FLight mixture of precip. Low clouds.13 mph100%29.62 "Hg8 mi
9:30 PM28 °FLight mixture of precip. Ice fog.16 mph100%29.63 "Hg6 mi
8:30 PM28 °FLight freezing rain. Low clouds.8 mph100%29.63 "Hg12 mi
7:30 PM28 °FLow clouds.14 mph93%29.63 "Hg15 mi
6:30 PM28 °FMostly cloudy.8 mph93%29.65 "Hg15 mi
5:30 PM30 °FLow clouds.9 mph86%29.66 "Hg15 mi
4:30 PM32 °FPartly sunny.8 mph60%29.66 "Hg15 mi
3:30 PM32 °FFog.8 mph55%29.67 "Hg15 mi
2:30 PM34 °FFog.6 mph65%29.68 "Hg15 mi
1:30 PM32 °FFog.7 mph80%29.70 "Hg15 mi
12:30 PM32 °FFog.7 mph80%29.72 "Hg15 mi
11:30 AM32 °FFog.6 mph80%29.75 "Hg15 mi
10:30 AM32 °FFog.7 mph80%29.76 "Hg15 mi
9:30 AM30 °FScattered clouds.2 mph86%29.78 "Hg15 mi
8:34 AM25 °FScattered clouds.No wind100%29.80 "Hg4 mi
8:30 AM25 °FIce fog.No wind100%29.80 "Hg1 mi
7:30 AM25 °FIce fog.3 mph100%29.80 "Hg0 mi
6:30 AM25 °FIce fog.5 mph100%29.81 "Hg0 mi
6:16 AM25 °FIce fog.3 mph100%29.81 "Hg0 mi
5:30 AM25 °FIce fog.3 mph100%29.82 "Hg1 mi
4:30 AM25 °FLow clouds.2 mph93%29.82 "Hg15 mi
3:30 AM23 °FFog.5 mph93%29.84 "Hg15 mi
2:30 AM23 °FFog.2 mph93%29.86 "Hg12 mi
2:21 AM23 °FFog.3 mph100%29.87 "Hg12 mi
Weather by CustomWeather, © 2015

See weather overviewHow to use our weather pages